Lawton, OK

7:32 PM CST on December 10, 2016 (GMT -0600)
Lawton-Fort Sill Regional

Weather History for KLAW - March, 2013

Change the Weather History Date:

Tuesday, March 19, 2013

  Actual Average Record
Temperature  
Mean Temperature 48 °F -  
Max Temperature 61 °F 66 °F 86 °F (1976)
Min Temperature 35 °F 40 °F 20 °F (1965)
Degree Days  
Heating Degree Days 17    
Moisture  
Dew Point 32 °F    
Average Humidity 49    
Maximum Humidity 82    
Minimum Humidity 30    
Precipitation  
Precipitation 0.00 in - - ()
Sea Level Pressure  
Sea Level Pressure 30.08 in    
Wind  
Wind Speed 7 mph (ENE)    
Max Wind Speed 18 mph    
Max Gust Speed 16 mph    
Visibility 10 miles    
Events      
Averages and records for this station are not official NWS values.
T = Trace of Precipitation, MM = Missing Value Source: NWS Daily Summary

Daily Weather History Graph

Daily Weather History Graph

Search for Another Location

Airport or City:

Trip Planner

Search our weather history database for the weather conditions in past years. The results will help you decide how hot, cold, wet, or windy it might be!

Date:

Astronomy

Mar. 19, 2013 Rise Set
Actual Time 7:38 AM CDT 7:44 PM CDT
Civil Twilight 7:13 AM CDT 8:09 PM CDT
Nautical Twilight 6:43 AM CDT 8:39 PM CDT
Astronomical Twilight 6:14 AM CDT 9:08 PM CDT
Moon 12:43 PM CDT (3/19) 2:19 AM CDT (3/19)
Length of Visible Light 12h 56m
Length of Day
12h 06m
Waxing Crescent, 50% of the Moon is Illuminated
Mar 19
Waxing Crescent
Mar 19
First Quarter
Mar 27
Full
Apr 2
Last Quarter
Apr 10
New

Hourly Weather History & Observations

Time (CDT) Temp. Windchill Dew Point Humidity Pressure Visibility Wind Dir Wind Speed Gust Speed Precip Events Conditions
12:53 AM 46.0 °F 43.9 °F 27.0 °F 47% 29.99 in 10.0 mi ENE 4.6 mph - N/A   Clear
1:53 AM 44.1 °F 41.5 °F 27.0 °F 51% 29.99 in 10.0 mi ENE 4.6 mph - N/A   Clear
2:53 AM 41.0 °F 39.0 °F 28.0 °F 60% 30.01 in 10.0 mi NE 3.5 mph - N/A   Clear
3:53 AM 42.1 °F 37.7 °F 28.9 °F 60% 30.01 in 10.0 mi NE 6.9 mph - N/A   Clear
4:53 AM 41.0 °F 38.0 °F 30.9 °F 67% 30.01 in 10.0 mi ENE 4.6 mph - N/A   Clear
5:53 AM 41.0 °F 37.1 °F 30.9 °F 67% 30.03 in 10.0 mi NE 5.8 mph - N/A   Clear
6:53 AM 35.1 °F - 30.0 °F 82% 30.05 in 10.0 mi Calm Calm - N/A   Clear
7:53 AM 39.0 °F 34.0 °F 32.0 °F 76% 30.07 in 10.0 mi NE 6.9 mph - N/A   Clear
8:53 AM 45.0 °F 41.8 °F 35.1 °F 68% 30.10 in 10.0 mi ENE 5.8 mph - N/A   Clear
9:53 AM 51.1 °F - 36.0 °F 56% 30.11 in 10.0 mi ESE 11.5 mph - N/A   Clear
10:53 AM 55.9 °F - 37.9 °F 51% 30.11 in 10.0 mi SE 18.4 mph - N/A   Clear
11:53 AM 57.0 °F - 37.0 °F 47% 30.11 in 10.0 mi SE 17.3 mph - N/A   Clear
12:53 PM 57.9 °F - 36.0 °F 44% 30.08 in 10.0 mi SE 17.3 mph - N/A   Clear
1:53 PM 60.1 °F - 33.1 °F 36% 30.06 in 10.0 mi SE 16.1 mph - N/A   Clear
2:53 PM 61.0 °F - 32.0 °F 34% 30.06 in 10.0 mi SE 12.7 mph 16.1 mph N/A   Clear
3:53 PM 61.0 °F - 30.0 °F 31% 30.05 in 10.0 mi East 4.6 mph - N/A   Clear
4:53 PM 61.0 °F - 28.9 °F 30% 30.05 in 10.0 mi East 5.8 mph - N/A   Clear
5:53 PM 60.1 °F - 30.0 °F 32% 30.07 in 10.0 mi ENE 8.1 mph - N/A   Clear
6:53 PM 59.0 °F - 32.0 °F 36% 30.09 in 10.0 mi NE 4.6 mph - N/A   Clear
7:53 PM 57.0 °F - 30.0 °F 36% 30.13 in 10.0 mi NE 8.1 mph - N/A   Clear
8:53 PM 55.9 °F - 30.0 °F 37% 30.14 in 10.0 mi NE 9.2 mph - N/A   Clear
9:53 PM 54.0 °F - 30.9 °F 41% 30.14 in 10.0 mi NNE 8.1 mph - N/A   Clear
10:53 PM 54.0 °F - 30.0 °F 40% 30.17 in 10.0 mi North 6.9 mph - N/A   Mostly Cloudy
11:53 PM 54.0 °F - 33.1 °F 45% 30.19 in 10.0 mi NNE 10.4 mph - N/A   Overcast